HORYU-4 (41340 NORAD) Tracking and Keplerian Element Data

This shows tracking and keplerian element data for the satellite.

Feedback or suggestion? Click here.




ElementValue
Catalog41340
NameHORYU-4
Epoch Orbit25670
Epoch Day294.60718217
Epoch Year2020
RAAN254.719
Inclination31.0048
Eccentricity0.0013841
Argument of Perigee310.7078
Mean Anonmoly49.2355
Mean Motion15.01587618
Decay Rate7.04E-06
L11 41340U 16012D 20294.60718217 .00000704 00000-0 46324-4 0 9995
L22 41340 31.0048 254.7190 0013841 310.7078 49.2355 15.01587618256701

Live tracking and technical data element details for HORYU-4 (NORAD 41340). HORYU-4 can be tracked NOW for your location showing map with azimuth and elevation plus other details from your city location.

Track the satellite on the map from your city or location and see movement details for azimuth, elevation, latitude, longitude, range, height, and movement on the map or in text.







IsCatalogInMostPopularTable: catalog: 41340, numindb: 378
Update: records affected: 1



GetName: 41340 HORYU-4

Hit Count: updated at: Thu, 22 Oct 2020 04:19:53 GMT